Wind_Speed
16 15 15 15 15 15 15 15 15 15 14 14 14 13 13 12 12 12 11 10 9 8 7 5 3 3 5 7 8 11 12 14 15 17 19 21 21 22 22 23 24 24 25
17 17 17 17 17 17 16 16 16 16 15 14 13 13 12 12 12 11 10 10 9 8 7 5 4 3 4 5 7 9 11 13 15 16 18 19 19 21 21 22 23 23 24
18 18 19 19 18 18 18 17 17 17 16 15 14 13 13 12 11 11 10 10 9 8 7 6 4 3 3 5 7 9 10 12 14 15 17 18 19 20 21 22 23 23 24
19 19 20 20 20 20 20 19 19 18 18 16 15 15 14 13 12 11 10 10 9 9 8 7 5 4 4 4 6 7 9 11 14 15 17 18 19 20 20 20 21 23 23
21 21 22 22 22 22 22 21 21 20 20 18 17 16 15 14 13 12 11 10 9 9 8 7 6 6 6 5 6 7 8 9 12 14 16 18 19 20 20 21 21 22 22
23 23 23 23 23 24 24 23 23 23 22 21 19 18 17 16 15 14 13 12 10 10 9 8 7 7 6 7 7 8 8 9 11 13 14 16 18 19 19 20 20 21 22
26 26 26 26 26 25 25 25 25 25 24 23 22 21 19 18 17 16 15 14 12 11 10 10 9 8 7 7 8 8 9 9 10 12 13 15 16 17 18 19 20 20 21
28 29 29 29 28 28 28 27 27 27 27 26 25 24 22 21 19 18 17 16 15 13 12 11 10 10 9 9 9 9 10 10 11 12 13 14 16 17 18 19 20 21 22
31 31 32 32 32 32 31 31 30 30 29 29 28 27 25 24 22 20 19 18 17 16 15 13 12 12 11 11 11 11 10 10 10 11 13 14 15 17 18 19 20 21 22
35 35 35 35 35 35 35 34 34 33 32 31 30 29 28 27 26 23 22 20 19 18 17 16 15 14 13 13 12 12 12 12 11 12 13 14 15 16 18 18 19 20 21
39 39 39 39 38 38 37 37 37 36 35 34 33 32 31 30 29 27 25 23 22 21 20 18 17 17 16 15 14 14 14 14 13 13 14 15 16 16 17 18 19 20 21
44 43 43 42 41 41 40 40 40 39 38 37 36 35 34 33 32 30 29 26 25 23 22 21 20 19 18 17 17 16 16 15 15 15 15 16 16 17 18 18 20 21 22
48 47 46 45 45 44 43 43 42 42 41 40 39 37 36 35 35 33 32 30 28 27 25 24 23 22 21 20 19 19 18 18 18 17 17 17 18 18 18 19 20 20 21
51 50 49 48 48 47 46 46 46 45 44 43 41 40 38 38 37 36 34 33 31 30 28 27 25 24 23 22 21 21 20 20 20 19 19 19 19 20 20 21 21 21 22
54 53 52 52 51 51 50 49 49 48 47 45 44 43 41 39 39 38 37 36 34 32 31 30 28 27 26 25 24 23 22 21 21 21 21 20 20 21 21 22 22 23 23
57 56 55 54 53 53 53 52 51 50 50 48 47 46 44 42 41 41 40 39 37 35 34 32 30 29 28 27 26 25 24 23 23 22 22 22 22 22 22 23 23 23 24
59 58 55 54 53 53 54 53 53 52 52 51 50 48 47 45 44 43 42 41 40 38 36 34 33 32 31 30 28 27 26 26 25 24 24 23 23 23 23 24 24 24 25
58 57 55 54 53 52 53 54 54 54 54 53 52 51 50 49 47 46 45 44 42 40 38 36 35 33 32 32 31 29 28 28 27 26 26 25 25 25 25 25 25 26 26
56 55 54 53 53 52 52 53 55 54 54 54 54 53 52 52 50 49 48 46 44 42 40 38 36 35 34 33 32 31 30 29 28 27 27 27 26 26 26 26 26 26 27
54 53 52 51 51 51 51 52 53 54 54 55 55 54 54 54 52 51 50 48 46 44 42 40 38 37 36 34 34 32 31 30 30 29 29 28 28 27 27 27 27 28 28
52 51 50 49 49 50 50 51 52 53 54 54 55 56 56 55 54 52 51 49 48 46 44 42 40 38 37 36 35 34 32 32 31 30 30 30 29 29 29 29 29 30 30
50 50 49 48 49 49 49 49 50 51 52 53 54 56 56 56 54 53 52 51 49 48 46 45 43 41 39 37 36 35 34 33 32 32 31 31 30 30 30 30 31 31 31
48 47 47 47 47 47 48 48 48 49 50 51 54 55 55 55 54 54 53 52 51 49 48 47 45 43 41 40 39 37 36 35 34 33 32 32 31 31 31 31 31 31 31
47 46 46 46 45 45 45 46 46 46 48 50 52 54 54 54 54 53 52 52 51 51 50 48 46 45 43 42 41 40 38 37 36 35 34 33 32 32 32 31 31 32 32
45 44 44 43 43 43 43 43 44 44 46 48 49 51 53 53 52 51 51 51 52 52 51 49 48 46 44 43 42 41 40 38 37 36 35 34 34 33 33 33 33 33 33
43 43 42 41 41 41 41 41 42 43 44 46 48 49 51 52 51 51 50 50 50 50 50 49 48 47 46 44 43 42 40 39 38 37 36 35 35 34 34 34 34 34 35
Wind_Direction
283 284 285 288 292 296 301 305 309 315 321 328 333 337 341 345 349 352 354 357 357 356 353 344 316 260 238 234 230 224 221 219 221 224 225 227 227 227 230 231 231 234 235
283 282 283 284 286 290 293 298 301 305 310 316 322 326 332 337 341 344 347 350 354 356 354 347 328 295 252 239 233 228 225 222 225 227 227 229 229 229 232 234 235 236 238
285 283 282 282 283 285 287 290 294 297 302 305 310 314 319 324 329 333 336 340 345 348 349 345 337 312 279 254 242 238 233 230 230 230 228 230 230 232 234 235 237 238 240
288 286 284 283 282 282 283 284 286 289 293 297 300 303 306 310 315 318 322 325 329 336 339 339 333 315 293 274 258 250 244 238 234 232 232 233 233 235 237 237 240 243 244
290 287 286 284 282 281 280 280 280 282 285 288 291 294 297 299 302 305 307 311 313 318 323 322 317 305 291 279 271 264 257 249 239 236 237 238 238 239 239 240 243 245 247
290 288 286 285 283 281 279 278 277 277 278 281 283 286 289 291 293 294 295 297 300 303 305 305 303 298 290 279 274 271 268 260 249 245 244 243 242 241 241 242 245 247 251
289 287 285 284 282 280 278 276 275 274 274 275 276 278 281 283 285 286 287 287 287 290 293 293 291 286 283 279 275 272 272 269 263 257 255 251 246 245 246 247 249 252 254
287 285 284 282 281 279 278 276 273 272 272 272 273 273 275 277 278 279 281 280 278 279 282 284 282 280 279 274 273 272 271 269 266 263 260 257 253 250 251 253 255 257 258
286 284 282 281 279 277 276 274 272 270 269 269 269 270 271 272 273 273 274 275 274 273 273 275 276 274 273 272 270 270 269 267 267 266 263 261 259 256 256 257 259 261 261
286 284 281 279 277 275 274 272 271 269 267 266 266 266 267 268 269 269 269 269 269 269 269 269 270 271 269 268 268 267 267 266 267 268 267 264 261 260 258 260 261 263 265
285 283 281 278 276 273 271 270 269 268 266 265 264 264 264 265 265 265 265 265 265 265 265 265 266 267 266 265 265 265 265 265 266 267 267 265 263 262 263 264 265 266 269
284 282 280 278 275 272 270 268 267 266 265 264 262 262 262 262 262 262 263 262 261 261 262 262 263 264 264 264 263 263 263 262 263 266 267 266 267 268 267 268 269 270 271
284 282 280 277 274 271 269 267 265 265 264 263 261 260 259 259 259 259 259 259 259 259 259 260 261 261 262 263 262 262 262 262 262 264 266 267 268 269 270 271 272 272 273
283 281 279 276 273 271 268 266 264 263 262 261 260 259 258 257 257 257 256 256 257 257 257 257 258 259 260 260 260 261 261 262 263 264 266 267 269 269 270 272 275 276 278
282 280 277 275 273 270 267 265 263 261 260 259 258 258 256 255 254 254 254 253 254 254 254 255 256 257 257 258 258 259 260 261 262 263 265 267 269 271 272 274 277 278 279
283 281 278 275 272 268 265 263 261 259 257 256 256 255 254 253 252 252 251 251 251 252 252 253 254 255 255 256 257 258 259 260 261 263 265 266 268 270 272 274 276 278 280
283 281 278 275 271 268 264 261 258 256 254 253 253 253 252 251 251 251 250 250 250 250 251 252 253 253 254 255 256 257 258 260 261 262 264 266 268 270 272 274 276 278 280
283 280 277 274 271 267 264 260 257 255 252 251 250 250 250 250 249 249 249 248 248 248 249 250 251 252 253 254 255 256 258 259 260 262 263 266 268 270 272 274 277 279 281
282 279 276 273 270 267 264 260 258 255 252 250 248 247 247 247 247 246 246 247 247 247 247 248 249 251 252 253 254 255 257 258 259 261 263 266 268 270 272 274 277 280 281
282 279 276 273 270 267 264 261 258 255 252 249 247 245 244 244 245 245 245 245 245 245 245 246 247 249 250 251 253 254 256 257 259 260 263 265 268 270 273 275 277 280 282
281 278 276 273 270 267 265 262 259 255 252 249 246 244 243 243 243 243 243 243 243 243 244 244 245 247 249 249 251 253 255 256 258 260 263 266 268 270 273 275 278 281 282
282 278 275 273 270 267 265 262 259 256 252 249 245 242 241 241 242 242 241 241 241 241 242 243 244 246 247 248 250 252 253 255 257 259 262 265 268 270 273 276 278 280 282
284 280 277 274 271 268 265 261 258 255 252 249 245 242 240 239 240 241 240 239 239 240 241 242 243 245 247 248 249 251 252 254 257 259 262 265 268 271 273 276 278 280 282
285 282 279 276 271 267 264 260 257 254 251 248 245 242 240 239 239 239 239 239 238 239 240 241 241 243 245 247 249 250 252 253 255 258 261 264 268 271 273 276 279 281 283
287 283 280 276 272 269 264 260 257 253 249 247 244 240 238 237 237 237 237 238 238 237 238 239 241 243 245 247 248 249 251 253 256 259 261 264 267 270 273 276 279 281 282
287 285 281 277 274 270 264 260 256 252 249 246 242 238 236 236 236 236 236 236 236 237 237 237 240 242 244 246 247 249 251 254 256 259 261 264 267 270 273 276 279 281 283
Height
5824 5823 5822 5821 5820 5819 5817 5816 5814 5812 5810 5807 5805 5802 5799 5796 5793 5791 5788 5786 5784 5782 5780 5779 5778 5778 5778 5779 5780 5781 5783 5786 5788 5790 5793 5796 5799 5802 5805 5808 5810 5813 5816
5820 5819 5818 5817 5816 5815 5814 5813 5811 5810 5808 5806 5803 5801 5798 5796 5793 5791 5788 5786 5784 5782 5780 5779 5778 5777 5777 5777 5778 5779 5781 5783 5785 5787 5789 5792 5794 5797 5800 5802 5805 5808 5810
5816 5815 5814 5813 5812 5811 5810 5809 5808 5807 5805 5803 5801 5799 5797 5795 5792 5790 5788 5786 5784 5782 5780 5778 5777 5776 5776 5776 5777 5777 5779 5780 5781 5783 5785 5787 5790 5792 5795 5797 5800 5802 5804
5812 5811 5810 5809 5808 5807 5806 5805 5804 5803 5802 5800 5799 5797 5795 5793 5791 5789 5786 5784 5782 5781 5779 5777 5776 5775 5775 5775 5775 5775 5776 5777 5778 5779 5781 5783 5785 5787 5790 5792 5794 5796 5798
5807 5806 5805 5804 5803 5802 5801 5800 5799 5799 5798 5796 5795 5793 5792 5790 5788 5787 5785 5783 5781 5779 5777 5776 5775 5773 5773 5773 5772 5772 5773 5773 5774 5775 5777 5778 5780 5782 5784 5786 5788 5790 5792
5802 5800 5799 5798 5797 5796 5795 5794 5794 5793 5792 5792 5791 5789 5788 5787 5785 5783 5782 5780 5779 5777 5775 5774 5772 5771 5771 5770 5770 5770 5770 5770 5771 5771 5773 5774 5775 5777 5779 5781 5783 5784 5786
5795 5794 5793 5792 5791 5790 5789 5788 5788 5787 5786 5786 5785 5784 5783 5782 5781 5780 5778 5777 5775 5774 5773 5771 5770 5769 5768 5768 5767 5767 5767 5767 5767 5768 5768 5769 5770 5772 5774 5775 5777 5778 5779
5789 5787 5786 5784 5784 5783 5782 5781 5780 5780 5779 5779 5779 5778 5778 5777 5776 5775 5774 5773 5772 5771 5769 5768 5767 5766 5765 5765 5764 5764 5764 5764 5764 5764 5764 5764 5765 5767 5768 5770 5771 5772 5773
5781 5779 5777 5776 5775 5774 5774 5773 5772 5772 5771 5771 5771 5771 5771 5771 5770 5769 5768 5768 5767 5766 5765 5764 5763 5763 5762 5762 5761 5761 5760 5760 5760 5760 5760 5760 5761 5762 5763 5764 5765 5766 5767
5771 5770 5768 5766 5766 5765 5764 5763 5763 5762 5762 5762 5763 5763 5763 5763 5763 5763 5762 5762 5761 5761 5760 5760 5759 5758 5758 5757 5757 5757 5756 5756 5756 5756 5756 5756 5756 5757 5758 5758 5759 5760 5760
5760 5759 5757 5755 5754 5753 5753 5752 5752 5752 5752 5753 5754 5754 5754 5755 5755 5755 5755 5755 5755 5755 5754 5754 5754 5753 5753 5753 5752 5752 5752 5752 5752 5752 5752 5752 5752 5752 5752 5753 5753 5754 5754
5748 5746 5744 5742 5741 5741 5740 5740 5740 5740 5741 5742 5743 5744 5745 5745 5746 5746 5747 5747 5748 5748 5748 5748 5748 5748 5747 5747 5747 5747 5747 5747 5747 5747 5747 5747 5747 5747 5747 5747 5747 5747 5747
5732 5731 5729 5728 5727 5726 5726 5727 5727 5727 5728 5729 5731 5732 5734 5735 5736 5736 5737 5738 5739 5740 5740 5740 5741 5741 5741 5741 5741 5741 5741 5741 5741 5741 5741 5741 5741 5741 5741 5741 5741 5740 5740
5716 5714 5712 5712 5711 5711 5711 5712 5712 5714 5715 5716 5718 5720 5722 5723 5724 5726 5727 5728 5729 5731 5731 5732 5733 5733 5734 5734 5734 5734 5734 5735 5735 5735 5735 5735 5735 5735 5735 5734 5734 5733 5733
5698 5696 5695 5694 5693 5693 5694 5695 5696 5698 5699 5702 5704 5706 5708 5711 5713 5714 5715 5717 5719 5720 5722 5723 5724 5725 5726 5726 5727 5727 5727 5728 5728 5728 5728 5728 5728 5728 5728 5727 5727 5726 5726
5678 5676 5675 5674 5673 5673 5674 5676 5678 5681 5683 5686 5689 5691 5694 5697 5699 5701 5703 5705 5707 5709 5711 5713 5715 5716 5717 5718 5719 5719 5720 5720 5721 5721 5721 5721 5721 5721 5720 5720 5719 5719 5718
5656 5655 5654 5653 5652 5653 5654 5656 5659 5662 5665 5669 5672 5676 5679 5682 5685 5688 5690 5692 5695 5698 5700 5703 5705 5706 5708 5709 5710 5711 5711 5712 5712 5713 5713 5713 5713 5713 5713 5712 5712 5711 5710
5636 5634 5633 5632 5632 5633 5634 5636 5639 5642 5647 5651 5655 5659 5663 5666 5670 5673 5676 5678 5682 5686 5689 5692 5694 5696 5697 5699 5700 5701 5702 5703 5704 5704 5704 5705 5705 5705 5704 5704 5703 5703 5702
5616 5614 5613 5612 5613 5613 5614 5616 5619 5623 5627 5632 5637 5641 5646 5649 5653 5657 5661 5665 5670 5673 5677 5680 5683 5685 5687 5688 5690 5691 5693 5694 5694 5695 5695 5696 5696 5696 5696 5695 5695 5694 5693
5596 5594 5593 5593 5593 5594 5595 5597 5600 5603 5608 5613 5618 5624 5628 5632 5637 5642 5646 5651 5656 5660 5664 5667 5670 5673 5676 5678 5679 5681 5683 5684 5685 5686 5686 5686 5687 5687 5687 5686 5685 5685 5683
5577 5576 5575 5574 5574 5575 5577 5579 5581 5585 5589 5594 5600 5605 5610 5615 5620 5626 5631 5637 5642 5647 5651 5654 5658 5661 5664 5666 5669 5671 5672 5674 5675 5676 5676 5677 5677 5677 5677 5677 5676 5675 5674
5559 5557 5557 5556 5556 5557 5558 5560 5563 5566 5570 5575 5581 5586 5591 5597 5603 5609 5615 5621 5627 5632 5637 5641 5645 5648 5652 5655 5657 5660 5662 5663 5665 5666 5666 5667 5667 5667 5667 5667 5666 5665 5664
5541 5540 5539 5539 5539 5539 5540 5542 5544 5548 5552 5557 5562 5568 5574 5580 5587 5593 5600 5605 5611 5617 5622 5627 5631 5636 5639 5643 5646 5648 5650 5652 5654 5655 5656 5657 5657 5657 5657 5657 5656 5655 5654
5525 5523 5522 5521 5521 5522 5523 5525 5527 5531 5535 5540 5545 5551 5557 5564 5571 5578 5584 5589 5596 5602 5607 5612 5617 5622 5626 5630 5633 5636 5639 5641 5643 5644 5645 5646 5647 5647 5647 5646 5645 5644 5643
5510 5507 5506 5505 5505 5505 5507 5508 5511 5515 5519 5523 5528 5534 5541 5548 5554 5562 5568 5574 5580 5587 5593 5598 5604 5609 5613 5617 5621 5624 5627 5629 5631 5633 5634 5635 5636 5636 5636 5635 5635 5633 5632
5495 5493 5491 5490 5490 5490 5491 5493 5495 5499 5502 5507 5512 5518 5525 5532 5539 5546 5553 5559 5566 5572 5578 5584 5590 5595 5600 5604 5608 5611 5614 5617 5619 5621 5623 5624 5624 5625 5625 5624 5623 5622 5621